OBERSTADN Weather Reports


Display with metric or nautical units.
time (UTC)temp
F
wind
direction
speed
MPH
gust
MPH
rain 1hr
in
rain 24hr
in
rain mn
in
humidity
%
barometer
mb
20260506060210 50 119 2.0 0.0 0.00 0.00 0.00 93 1006.7
20260506050211 45 317 1.0 0.0 0.00 0.00 0.00 91 1007.0
20260506043211 45 309 5.0 0.0 0.00 0.00 0.00 90 1007.2
20260506040211 46 130 3.0 0.0 0.00 0.00 0.00 90 1007.4
20260506033211 47 323 1.0 0.0 0.00 0.00 0.00 89 1007.7
20260506030212 48 211 3.0 0.0 0.00 0.00 0.00 90 1007.7
20260506023211 49 156 1.0 0.0 0.00 0.00 0.00 88 1008.1
20260506020212 50 346 1.0 0.0 0.00 0.00 0.00 88 1008.1
20260506013211 50 270 3.0 0.0 0.00 0.00 0.00 88 1008.3
20260506010213 51 227 8.0 0.0 0.00 0.00 0.00 88 1008.6
20260506003209 51 234 6.0 0.0 0.00 0.00 0.00 88 1008.4
20260506000211 50 200 8.0 0.0 0.00 0.00 0.00 87 1008.8
20260505233209 51 217 5.0 0.0 0.00 0.00 0.00 87 1009.0
20260505230209 51 192 5.0 0.0 0.00 0.00 0.00 85 1009.0
20260505223210 52 198 7.0 0.0 0.00 0.00 0.00 84 1009.1
20260505213211 54 249 10.0 0.0 0.00 0.00 0.00 81 1009.1
20260505210215 55 247 7.0 0.0 0.00 0.00 0.00 79 1009.1
20260505203209 56 235 8.0 0.0 0.00 0.00 0.00 78 1008.7
20260505200210 57 194 10.0 0.0 0.00 0.00 0.00 77 1009.0
20260505193209 58 195 9.0 0.0 0.00 0.00 0.00 77 1008.8
20260505190215 60 236 14.0 0.0 0.00 0.00 0.00 75 1008.2
20260505183212 61 202 11.0 0.0 0.00 0.00 0.00 69 1007.7
20260505180211 62 275 10.0 0.0 0.00 0.00 0.00 64 1007.3
20260505173210 64 202 5.0 0.0 0.00 0.00 0.00 62 1007.1
20260505170210 65 234 6.0 0.0 0.00 0.00 0.00 60 1007.0
20260505163211 66 262 7.0 0.0 0.00 0.00 0.00 58 1007.0
20260505153210 62 355 2.0 0.0 0.00 0.00 0.00 72 1007.1
20260505150216 62 323 7.0 0.0 0.00 0.00 0.00 71 1007.0
20260505140210 61 298 10.0 0.0 0.00 0.00 0.00 75 1007.6
20260505130210 63 290 10.0 0.0 0.00 0.00 0.00 71 1007.8
20260505123210 64 254 8.0 0.0 0.00 0.00 0.00 70 1007.8
20260505120210 65 238 7.0 0.0 0.00 0.00 0.00 64 1008.0
20260505113210 66 186 10.0 0.0 0.00 0.00 0.00 64 1008.0
20260505110211 66 248 8.0 0.0 0.00 0.00 0.00 63 1007.7
20260505100212 65 203 5.0 0.0 0.00 0.00 0.00 62 1008.0
20260505093212 65 223 4.0 0.0 0.00 0.00 0.00 64 1008.1
20260505090212 65 250 3.0 0.0 0.00 0.00 0.00 66 1008.1
20260505083211 64 248 4.0 0.0 0.00 0.00 0.00 67 1008.4
20260505080210 64 42 4.0 0.0 0.00 0.00 0.00 65 1008.4
20260505073210 60 304 2.0 0.0 0.00 0.00 0.00 74 1008.7
20260505070211 59 62 2.0 0.0 0.00 0.00 0.00 73 1009.0